Disclaimer

Please do not use the information listed here in-flight or in-navigation, as they are not provided to us by the airports but are provided by volunteers, so they might be outdated.

Search


Regions


Airport information page

No radio frequency information is available.

Airport informations:
Latitude: 62° 05' 35.70" N
Longitude: 129° 46' 14.42" E
Elevation: 325 feet - 99 meters
Operating hours: 24 hour operations
Operating agency: Civil government, landing fees and diplomatic clearance may be required
Timezone: UTC+9(+10DT) - Last Sunday in March to last Sunday in October
Fuel: N/A

Runway information:
05R/23L - 11155 x 197 feet< - >3400 x 60 meters
05L/23R - 8202 x 161 feet< - >2500 x 49 meters

Recent METARs:
UEEE 171330Z 36001MPS 0900 R23L/2000U FG NSC M41/M46 Q1023 R23L/490150 NOSIG RMK QFE759
UEEE 171400Z 01001MPS 1000 R23L/2000U BR NSC M41/M46 Q1023 R23L/490150 NOSIG RMK QFE758
UEEE 171430Z 36001MPS 1000 R23L/2000N BR NSC M41/M46 Q1023 R23L/490150 NOSIG RMK QFE758

Airport on the map: